When you browse on this site, cookies collect data to enhance your experience and personalize the content and advertising you see.
Visit our Privacy Policy to learn more. By continuing to use the site, you agree to this use of cookies and data.
  • In Italy
  • List of Countries
  • For 7 days
  • Water Temperature
  • Satellite Maps
  • Weather Map
  • Weather Widgets
  • user-avatar
    Login

    Hourly Weather Exeter

    Today, 17 January, Thursday

    Time Temperature Precipitation Wind Pressure Humidity
    00:00 +2°C° 0 mm 6 mps 745 mmHg 88%
    01:00 +2°C° 0 mm 6 mps 746 mmHg 86%
    02:00 +2°C° 0 mm 6 mps 746 mmHg 85%
    03:00 +2°C° 0 mm 6 mps 747 mmHg 83%
    04:00 +2°C° 0 mm 6 mps 747 mmHg 84%
    05:00 +2°C° 0 mm 6 mps 748 mmHg 85%
    06:00 +2°C° 0 mm 5 mps 749 mmHg 88%
    07:00 +2°C° 0 mm 5 mps 750 mmHg 85%
    08:00 +1°C° 0 mm 5 mps 751 mmHg 82%
    09:00 +1°C° 0 mm 6 mps 752 mmHg 79%
    10:00 +2°C° 0 mm 6 mps 752 mmHg 72%
    11:00 +3°C° 0 mm 6 mps 753 mmHg 66%
    12:00 +3°C° 0 mm 6 mps 754 mmHg 59%
    13:00 +3°C° 0 mm 5 mps 754 mmHg 60%
    14:00 +4°C° 0 mm 4 mps 755 mmHg 61%
    15:00 +4°C° 0 mm 3 mps 755 mmHg 62%
    16:00 +4°C° 0 mm 2 mps 755 mmHg 63%
    17:00 +3°C° 0 mm 2 mps 755 mmHg 64%
    18:00 +3°C° 0 mm 1 mps 756 mmHg 65%
    19:00 +3°C° 0 mm 1 mps 756 mmHg 65%
    20:00 +3°C° 0 mm 1 mps 756 mmHg 65%
    21:00 +2°C° 0 mm 0 mps 756 mmHg 65%
    22:00 +3°C° 0 mm 1 mps 756 mmHg 66%
    23:00 +3°C° 0 mm 1 mps 756 mmHg 66%

    Tomorrow, 18 January, Friday

    Time Temperature Precipitation Wind Pressure Humidity
    00:00 +3°C° 0 mm 1 mps 756 mmHg 66%
    01:00 +2°C° 0 mm 2 mps 756 mmHg 65%
    02:00 +3°C° 0 mm 2 mps 755 mmHg 64%
    03:00 +2°C° 0 mm 3 mps 755 mmHg 63%
    04:00 +1°C° 0 mm 4 mps 754 mmHg 66%
    05:00 +1°C° 0 mm 4 mps 754 mmHg 68%
    06:00 +1°C° 0 mm 4 mps 753 mmHg 70%
    07:00 +2°C° 0.1 mm 5 mps 753 mmHg 72%
    08:00 +2°C° 0.1 mm 6 mps 752 mmHg 74%
    09:00 +3°C° 0.1 mm 7 mps 752 mmHg 76%
    10:00 +3°C° 0.2 mm 7 mps 752 mmHg 78%
    11:00 +4°C° 0.2 mm 8 mps 751 mmHg 79%
    12:00 +3°C° 0.2 mm 9 mps 751 mmHg 81%
    13:00 +3°C° 0.5 mm 9 mps 750 mmHg 84%
    14:00 +3°C° 0.5 mm 9 mps 750 mmHg 87%
    15:00 +3°C° 0.5 mm 9 mps 749 mmHg 90%
    16:00 +5°C° 0.5 mm 8 mps 749 mmHg 91%
    17:00 +5°C° 0.5 mm 6 mps 749 mmHg 91%
    18:00 +6°C° 0.5 mm 5 mps 749 mmHg 91%
    19:00 +6°C° 0.3 mm 4 mps 749 mmHg 90%
    20:00 +5°C° 0.3 mm 3 mps 748 mmHg 89%
    21:00 +5°C° 0.3 mm 3 mps 748 mmHg 88%
    22:00 +4°C° 0 mm 3 mps 748 mmHg 88%
    23:00 +4°C° 0 mm 3 mps 748 mmHg 88%

    Day after tomorrow, 19 January, Saturday

    Time Temperature Precipitation Wind Pressure Humidity
    00:00 +4°C° 0 mm 3 mps 748 mmHg 88%
    01:00 +4°C° 0 mm 3 mps 747 mmHg 88%
    02:00 +4°C° 0 mm 3 mps 747 mmHg 89%
    03:00 +4°C° 0 mm 3 mps 747 mmHg 89%
    04:00 +4°C° 0 mm 3 mps 747 mmHg 90%
    05:00 +4°C° 0 mm 3 mps 746 mmHg 90%
    06:00 +3°C° 0 mm 3 mps 746 mmHg 91%
    07:00 +4°C° 0 mm 3 mps 746 mmHg 91%
    08:00 +4°C° 0 mm 3 mps 746 mmHg 91%
    09:00 +4°C° 0 mm 3 mps 747 mmHg 91%
    10:00 +5°C° 0 mm 3 mps 747 mmHg 87%
    11:00 +8°C° 0 mm 3 mps 747 mmHg 84%
    12:00 +9°C° 0 mm 3 mps 747 mmHg 81%
    13:00 +9°C° 0.4 mm 3 mps 747 mmHg 81%
    14:00 +9°C° 0.4 mm 3 mps 747 mmHg 81%
    15:00 +9°C° 0.4 mm 2 mps 746 mmHg 82%
    16:00 +8°C° 0.1 mm 2 mps 747 mmHg 85%
    17:00 +7°C° 0.1 mm 3 mps 747 mmHg 89%
    18:00 +5°C° 0.1 mm 3 mps 747 mmHg 93%
    19:00 +5°C° 0.1 mm 3 mps 748 mmHg 93%
    20:00 +5°C° 0.1 mm 3 mps 748 mmHg 93%
    21:00 +5°C° 0.1 mm 3 mps 748 mmHg 94%
    22:00 +5°C° 0 mm 3 mps 749 mmHg 94%
    23:00 +4°C° 0 mm 3 mps 749 mmHg 94%

    20 January, Sunday

    Time Temperature Precipitation Wind Pressure Humidity
    00:00 +4°C° 0 mm 3 mps 749 mmHg 94%
    01:00 +5°C° 0 mm 4 mps 750 mmHg 94%
    02:00 +5°C° 0 mm 4 mps 750 mmHg 94%
    03:00 +5°C° 0 mm 4 mps 750 mmHg 93%
    04:00 +5°C° 0 mm 4 mps 751 mmHg 93%
    05:00 +4°C° 0 mm 4 mps 752 mmHg 94%
    06:00 +4°C° 0 mm 3 mps 752 mmHg 94%
    07:00 +4°C° 0 mm 3 mps 753 mmHg 93%
    08:00 +4°C° 0 mm 3 mps 754 mmHg 93%
    09:00 +4°C° 0 mm 3 mps 755 mmHg 93%
    10:00 +5°C° 0 mm 4 mps 755 mmHg 90%
    11:00 +6°C° 0 mm 5 mps 756 mmHg 87%
    12:00 +7°C° 0 mm 6 mps 757 mmHg 85%
    13:00 +5°C° 0 mm 6 mps 757 mmHg 84%
    14:00 +5°C° 0 mm 6 mps 758 mmHg 84%
    15:00 +5°C° 0 mm 7 mps 758 mmHg 84%
    16:00 +5°C° 0 mm 7 mps 759 mmHg 84%
    17:00 +4°C° 0 mm 7 mps 759 mmHg 83%
    18:00 +4°C° 0 mm 7 mps 760 mmHg 83%
    19:00 +3°C° 0 mm 6 mps 761 mmHg 83%
    20:00 +2°C° 0 mm 6 mps 761 mmHg 82%
    21:00 +2°C° 0 mm 5 mps 762 mmHg 82%
    22:00 +1°C° 0 mm 5 mps 762 mmHg 82%
    23:00 +1°C° 0 mm 4 mps 762 mmHg 83%

    21 January, Monday

    Time Temperature Precipitation Wind Pressure Humidity
    00:00 +1°C° 0 mm 4 mps 763 mmHg 83%
    01:00 0°C° 0 mm 4 mps 763 mmHg 83%
    02:00 +1°C° 0 mm 3 mps 763 mmHg 83%
    03:00 +1°C° 0 mm 3 mps 763 mmHg 83%
    04:00 +2°C° 0 mm 2 mps 763 mmHg 83%
    05:00 +1°C° 0 mm 2 mps 763 mmHg 84%
    06:00 +1°C° 0 mm 2 mps 763 mmHg 84%
    07:00 +2°C° 0 mm 1 mps 763 mmHg 84%
    08:00 +2°C° 0 mm 1 mps 763 mmHg 84%
    09:00 +3°C° 0 mm 1 mps 763 mmHg 84%
    10:00 +4°C° 0 mm 1 mps 763 mmHg 80%
    11:00 +4°C° 0 mm 2 mps 762 mmHg 76%
    12:00 +5°C° 0 mm 2 mps 762 mmHg 72%
    13:00 +4°C° 0 mm 3 mps 761 mmHg 72%
    14:00 +4°C° 0 mm 4 mps 760 mmHg 73%
    15:00 +5°C° 0 mm 4 mps 759 mmHg 73%
    16:00 +4°C° 0 mm 4 mps 758 mmHg 76%
    17:00 +4°C° 0 mm 4 mps 757 mmHg 79%
    18:00 +2°C° 0 mm 5 mps 755 mmHg 82%
    19:00 +2°C° 0.3 mm 6 mps 754 mmHg 82%
    20:00 +3°C° 0.3 mm 7 mps 752 mmHg 82%
    21:00 +2°C° 0.3 mm 8 mps 750 mmHg 82%
    22:00 +2°C° 1.7 mm 8 mps 749 mmHg 85%
    23:00 +3°C° 1.7 mm 9 mps 747 mmHg 89%

    22 January, Tuesday

    Time Temperature Precipitation Wind Pressure Humidity
    00:00 +3°C° 1.7 mm 10 mps 746 mmHg 92%
    01:00 +2°C° 0.9 mm 9 mps 745 mmHg 87%
    02:00 +1°C° 0.9 mm 8 mps 744 mmHg 82%
    03:00 0°C° 0.9 mm 7 mps 744 mmHg 78%
    04:00 -1°C° 0 mm 7 mps 744 mmHg 78%
    05:00 -1°C° 0 mm 6 mps 744 mmHg 79%
    06:00 -2°C° 0 mm 6 mps 743 mmHg 79%
    07:00 -1°C° 0.1 mm 6 mps 744 mmHg 79%
    08:00 -1°C° 0.1 mm 7 mps 744 mmHg 78%
    09:00 0°C° 0.1 mm 7 mps 744 mmHg 78%
    10:00 0°C° 0.1 mm 8 mps 744 mmHg 75%
    11:00 +1°C° 0.1 mm 9 mps 744 mmHg 73%
    12:00 +1°C° 0.1 mm 10 mps 744 mmHg 70%
    13:00 +1°C° 0 mm 10 mps 744 mmHg 70%
    14:00 +1°C° 0 mm 10 mps 744 mmHg 70%
    15:00 +1°C° 0 mm 9 mps 743 mmHg 70%
    16:00 +1°C° 0 mm 9 mps 743 mmHg 72%
    17:00 0°C° 0 mm 8 mps 743 mmHg 73%
    18:00 0°C° 0 mm 8 mps 743 mmHg 75%
    19:00 0°C° 0 mm 8 mps 743 mmHg 75%
    20:00 0°C° 0 mm 8 mps 743 mmHg 75%
    21:00 0°C° 0 mm 8 mps 743 mmHg 75%
    22:00 0°C° 0 mm 8 mps 744 mmHg 74%
    23:00 0°C° 0 mm 9 mps 744 mmHg 73%
    Show more